Time,TemperatureF,DewpointF,PressureIn,WindDirection,WindDirectionDegrees,WindSpeedMPH,WindSpeedGustMPH,Humidity,HourlyPrecipIn,Conditions,Clouds,dailyrainin,SoftwareType,DateUTC
2013-01-19 00:01:00,46.4,34.9,30.24,South,170,1.0,10.0,64,0.00,,,0.00,Weather View 32 v70,2013-01-19 06:01:00,
2013-01-19 00:06:00,46.4,34.9,30.24,South,181,2.0,9.0,64,0.00,,,0.00,Weather View 32 v70,2013-01-19 06:06:00,
2013-01-19 00:11:00,46.3,35.2,30.24,South,170,5.0,9.0,65,0.00,,,0.00,Weather View 32 v70,2013-01-19 06:11:00,
2013-01-19 00:21:00,46.1,35.0,30.24,SSE,168,4.0,9.0,65,0.00,,,0.00,Weather View 32 v70,2013-01-19 06:21:00,
2013-01-19 00:26:00,46.0,34.9,30.24,South,170,4.0,9.0,65,0.00,,,0.00,Weather View 32 v70,2013-01-19 06:26:00,
2013-01-19 00:36:00,45.9,35.2,30.23,South,179,1.0,9.0,66,0.00,,,0.00,Weather View 32 v70,2013-01-19 06:36:00,
2013-01-19 00:41:00,46.0,35.3,30.23,South,177,6.0,9.0,66,0.00,,,0.00,Weather View 32 v70,2013-01-19 06:41:00,
2013-01-19 00:51:00,45.8,35.1,30.23,SSE,156,4.0,9.0,66,0.00,,,0.00,Weather View 32 v70,2013-01-19 06:51:00,
2013-01-19 01:01:00,45.6,35.3,30.23,South,181,5.0,9.0,67,0.00,,,0.00,Weather View 32 v70,2013-01-19 07:01:00,
2013-01-19 01:11:00,45.6,35.3,30.23,South,183,3.0,10.0,67,0.00,,,0.00,Weather View 32 v70,2013-01-19 07:11:00,
2013-01-19 01:21:00,45.7,35.4,30.23,South,172,3.0,10.0,67,0.00,,,0.00,Weather View 32 v70,2013-01-19 07:21:00,
2013-01-19 01:31:00,45.6,35.3,30.22,South,179,2.0,10.0,67,0.00,,,0.00,Weather View 32 v70,2013-01-19 07:31:00,
2013-01-19 01:36:00,45.5,35.2,30.22,SSE,167,3.0,10.0,67,0.00,,,0.00,Weather View 32 v70,2013-01-19 07:36:00,
2013-01-19 01:46:00,45.5,35.2,30.22,SSE,166,3.0,10.0,67,0.00,,,0.00,Weather View 32 v70,2013-01-19 07:46:00,
2013-01-19 01:51:00,45.5,35.2,30.22,SSE,166,4.0,10.0,67,0.00,,,0.00,Weather View 32 v70,2013-01-19 07:51:00,
2013-01-19 02:01:00,45.6,35.3,30.22,South,172,2.0,10.0,67,0.00,,,0.00,Weather View 32 v70,2013-01-19 08:01:00,
2013-01-19 02:06:00,45.5,35.2,30.22,South,171,4.0,10.0,67,0.00,,,0.00,Weather View 32 v70,2013-01-19 08:06:00,
2013-01-19 02:16:00,45.5,35.2,30.22,South,181,3.0,9.0,67,0.00,,,0.00,Weather View 32 v70,2013-01-19 08:16:00,
2013-01-19 02:21:00,45.5,35.2,30.22,South,170,1.0,9.0,67,0.00,,,0.00,Weather View 32 v70,2013-01-19 08:21:00,
2013-01-19 02:31:00,45.4,35.1,30.22,South,171,3.0,9.0,67,0.00,,,0.00,Weather View 32 v70,2013-01-19 08:31:00,
2013-01-19 02:36:00,45.4,35.1,30.22,South,182,3.0,9.0,67,0.00,,,0.00,Weather View 32 v70,2013-01-19 08:36:00,
2013-01-19 02:46:00,45.2,35.3,30.22,South,179,0.0,9.0,68,0.00,,,0.00,Weather View 32 v70,2013-01-19 08:46:00,
2013-01-19 02:51:00,45.1,35.2,30.21,South,179,1.0,8.0,68,0.00,,,0.00,Weather View 32 v70,2013-01-19 08:51:00,
2013-01-19 03:01:00,45.0,35.1,30.21,South,170,1.0,8.0,68,0.00,,,0.00,Weather View 32 v70,2013-01-19 09:01:00,
2013-01-19 03:06:00,45.0,35.1,30.21,South,182,3.0,8.0,68,0.00,,,0.00,Weather View 32 v70,2013-01-19 09:06:00,
2013-01-19 03:11:00,45.0,35.1,30.21,SSE,166,2.0,8.0,68,0.00,,,0.00,Weather View 32 v70,2013-01-19 09:11:00,
2013-01-19 03:16:00,44.9,35.3,30.21,South,173,0.0,8.0,69,0.00,,,0.00,Weather View 32 v70,2013-01-19 09:16:00,
2013-01-19 03:26:00,44.8,35.2,30.21,SSE,166,4.0,8.0,69,0.00,,,0.00,Weather View 32 v70,2013-01-19 09:26:00,
2013-01-19 03:31:00,44.7,35.1,30.21,South,169,3.0,8.0,69,0.00,,,0.00,Weather View 32 v70,2013-01-19 09:31:00,
2013-01-19 03:36:00,44.7,35.1,30.20,South,171,4.0,8.0,69,0.00,,,0.00,Weather View 32 v70,2013-01-19 09:36:00,
2013-01-19 03:46:00,44.6,35.0,30.20,South,174,0.0,8.0,69,0.00,,,0.00,Weather View 32 v70,2013-01-19 09:46:00,
2013-01-19 03:56:00,44.6,35.0,30.20,South,181,0.0,8.0,69,0.00,,,0.00,Weather View 32 v70,2013-01-19 09:56:00,
2013-01-19 04:06:00,44.8,35.2,30.19,South,183,2.0,8.0,69,0.00,,,0.00,Weather View 32 v70,2013-01-19 10:06:00,
2013-01-19 04:11:00,44.9,35.3,30.19,SSE,164,2.0,8.0,69,0.00,,,0.00,Weather View 32 v70,2013-01-19 10:11:00,
2013-01-19 04:21:00,44.8,35.2,30.19,South,178,0.0,8.0,69,0.00,,,0.00,Weather View 32 v70,2013-01-19 10:21:00,
2013-01-19 04:31:00,44.9,35.3,30.19,South,174,0.0,8.0,69,0.00,,,0.00,Weather View 32 v70,2013-01-19 10:31:00,
2013-01-19 04:41:00,45.0,35.1,30.19,SSW,192,1.0,8.0,68,0.00,,,0.00,Weather View 32 v70,2013-01-19 10:41:00,
2013-01-19 04:46:00,45.3,35.3,30.19,SSW,200,5.0,8.0,68,0.00,,,0.00,Weather View 32 v70,2013-01-19 10:46:00,
2013-01-19 04:51:00,45.6,35.6,30.18,South,190,0.0,8.0,68,0.00,,,0.00,Weather View 32 v70,2013-01-19 10:51:00,
2013-01-19 05:01:00,45.7,35.7,30.18,South,181,0.0,8.0,68,0.00,,,0.00,Weather View 32 v70,2013-01-19 11:01:00,
2013-01-19 05:06:00,45.6,35.3,30.18,South,180,0.0,8.0,67,0.00,,,0.00,Weather View 32 v70,2013-01-19 11:06:00,
2013-01-19 05:11:00,45.5,35.5,30.18,South,180,0.0,8.0,68,0.00,,,0.00,Weather View 32 v70,2013-01-19 11:11:00,
2013-01-19 06:47:00,45.8,35.5,30.18,South,179,0.0,8.0,67,0.00,,,0.00,Weather View 32 v70,2013-01-19 12:47:00,
2013-01-19 06:51:00,45.8,35.5,30.18,South,190,3.0,8.0,67,0.00,,,0.00,Weather View 32 v70,2013-01-19 12:51:00,
2013-01-19 06:56:00,45.9,35.5,30.18,SSW,192,5.0,9.0,67,0.00,,,0.00,Weather View 32 v70,2013-01-19 12:56:00,
2013-01-19 07:01:00,45.8,35.5,30.18,SSW,195,0.0,9.0,67,0.00,,,0.00,Weather View 32 v70,2013-01-19 13:01:00,
2013-01-19 07:09:00,45.7,35.4,30.18,South,189,4.0,9.0,67,0.00,,,0.00,Weather View 32 v70,2013-01-19 13:09:00,
2013-01-19 07:16:00,45.6,35.6,30.19,South,177,4.0,9.0,68,0.00,,,0.00,Weather View 32 v70,2013-01-19 13:16:00,
2013-01-19 07:21:00,45.6,35.6,30.18,SSW,195,7.0,9.0,68,0.00,,,0.00,Weather View 32 v70,2013-01-19 13:21:00,
2013-01-19 07:26:00,45.6,35.6,30.18,South,177,1.0,9.0,68,0.00,,,0.00,Weather View 32 v70,2013-01-19 13:26:00,
2013-01-19 07:31:00,45.6,35.6,30.18,South,173,6.0,12.0,68,0.00,,,0.00,Weather View 32 v70,2013-01-19 13:31:00,
2013-01-19 07:41:00,45.8,35.5,30.18,SSW,201,5.0,13.0,67,0.00,,,0.00,Weather View 32 v70,2013-01-19 13:41:00,
2013-01-19 07:46:00,45.6,35.3,30.18,South,187,8.0,13.0,67,0.00,,,0.00,Weather View 32 v70,2013-01-19 13:46:00,
2013-01-19 07:56:00,45.5,35.5,30.18,South,191,5.0,14.0,68,0.00,,,0.00,Weather View 32 v70,2013-01-19 13:56:00,
2013-01-19 08:01:00,45.4,35.4,30.18,SSW,194,8.0,14.0,68,0.00,,,0.00,Weather View 32 v70,2013-01-19 14:01:00,
2013-01-19 08:10:00,45.6,35.3,30.18,South,184,5.0,14.0,67,0.00,,,0.00,Weather View 32 v70,2013-01-19 14:10:00,
2013-01-19 08:16:00,45.9,35.5,30.18,SSW,204,4.0,14.0,67,0.00,,,0.00,Weather View 32 v70,2013-01-19 14:16:00,
2013-01-19 08:26:00,46.2,35.8,30.19,SSW,195,0.0,14.0,67,0.00,,,0.00,Weather View 32 v70,2013-01-19 14:26:00,
2013-01-19 08:31:00,46.4,35.6,30.19,South,188,0.0,14.0,66,0.00,,,0.00,Weather View 32 v70,2013-01-19 14:31:00,
2013-01-19 08:36:00,46.6,35.8,30.20,South,186,0.0,14.0,66,0.00,,,0.00,Weather View 32 v70,2013-01-19 14:36:00,
2013-01-19 08:46:00,47.2,36.0,30.20,South,177,5.0,14.0,65,0.00,,,0.00,Weather View 32 v70,2013-01-19 14:46:00,
2013-01-19 08:51:00,47.4,35.8,30.20,SSW,207,7.0,11.0,64,0.00,,,0.00,Weather View 32 v70,2013-01-19 14:51:00,
2013-01-19 08:56:00,47.6,36.0,30.20,SSW,197,4.0,11.0,64,0.00,,,0.00,Weather View 32 v70,2013-01-19 14:56:00,
2013-01-19 09:01:00,47.8,36.2,30.20,South,189,7.0,11.0,64,0.00,,,0.00,Weather View 32 v70,2013-01-19 15:01:00,
2013-01-19 09:10:00,48.1,36.1,30.20,SSW,195,5.0,12.0,63,0.00,,,0.00,Weather View 32 v70,2013-01-19 15:10:00,
2013-01-19 09:16:00,48.8,36.3,30.21,South,175,0.0,12.0,62,0.00,,,0.00,Weather View 32 v70,2013-01-19 15:16:00,
2013-01-19 09:21:00,49.2,36.3,30.21,SW,226,6.0,12.0,61,0.00,,,0.00,Weather View 32 v70,2013-01-19 15:21:00,
2013-01-19 09:31:00,49.6,36.3,30.21,SSW,206,6.0,12.0,60,0.00,,,0.00,Weather View 32 v70,2013-01-19 15:31:00,
2013-01-19 09:42:00,50.2,36.4,30.22,SSW,201,6.0,12.0,59,0.00,,,0.00,Weather View 32 v70,2013-01-19 15:42:00,
2013-01-19 09:51:00,50.8,36.5,30.22,SSW,205,4.0,12.0,58,0.00,,,0.00,Weather View 32 v70,2013-01-19 15:51:00,
2013-01-19 09:56:00,51.0,36.7,30.22,SSW,208,9.0,15.0,58,0.00,,,0.00,Weather View 32 v70,2013-01-19 15:56:00,
2013-01-19 10:01:00,51.2,36.9,30.22,SSW,205,4.0,15.0,58,0.00,,,0.00,Weather View 32 v70,2013-01-19 16:01:00,
2013-01-19 10:12:00,51.5,36.7,30.22,SSW,203,5.0,17.0,57,0.00,,,0.00,Weather View 32 v70,2013-01-19 16:12:00,
2013-01-19 10:21:00,52.2,36.9,30.23,SSW,197,10.0,18.0,56,0.00,,,0.00,Weather View 32 v70,2013-01-19 16:21:00,
2013-01-19 10:26:00,52.6,36.9,30.22,SSW,210,2.0,18.0,55,0.00,,,0.00,Weather View 32 v70,2013-01-19 16:26:00,
2013-01-19 10:31:00,52.9,37.1,30.22,SSW,204,0.0,18.0,55,0.00,,,0.00,Weather View 32 v70,2013-01-19 16:31:00,
2013-01-19 10:41:00,53.3,37.0,30.22,SSW,202,5.0,18.0,54,0.00,,,0.00,Weather View 32 v70,2013-01-19 16:41:00,
2013-01-19 10:46:00,53.6,36.8,30.22,South,190,10.0,18.0,53,0.00,,,0.00,Weather View 32 v70,2013-01-19 16:46:00,
2013-01-19 10:56:00,54.4,37.1,30.22,SW,227,0.0,18.0,52,0.00,,,0.00,Weather View 32 v70,2013-01-19 16:56:00,
2013-01-19 11:01:00,54.7,36.9,30.22,SW,219,9.0,18.0,51,0.00,,,0.00,Weather View 32 v70,2013-01-19 17:01:00,
2013-01-19 11:06:00,54.6,36.8,30.22,SSW,195,11.0,18.0,51,0.00,,,0.00,Weather View 32 v70,2013-01-19 17:06:00,
2013-01-19 11:11:00,55.0,37.2,30.22,WSW,241,6.0,19.0,51,0.00,,,0.00,Weather View 32 v70,2013-01-19 17:11:00,
2013-01-19 11:36:00,55.7,37.3,30.20,SSW,212,7.0,19.0,50,0.00,,,0.00,Weather View 32 v70,2013-01-19 17:36:00,
2013-01-19 11:41:00,55.9,37.5,30.19,SW,216,3.0,19.0,50,0.00,,,0.00,Weather View 32 v70,2013-01-19 17:41:00,
2013-01-19 11:47:00,56.3,37.9,30.19,SW,218,0.0,19.0,50,0.00,,,0.00,Weather View 32 v70,2013-01-19 17:47:00,
2013-01-19 11:56:00,57.0,37.5,30.19,SSW,201,3.0,19.0,48,0.00,,,0.00,Weather View 32 v70,2013-01-19 17:56:00,
2013-01-19 12:07:00,57.4,37.3,30.18,SSE,164,8.0,19.0,47,0.00,,,0.00,Weather View 32 v70,2013-01-19 18:07:00,
2013-01-19 12:12:00,57.5,37.4,30.18,South,189,1.0,12.0,47,0.00,,,0.00,Weather View 32 v70,2013-01-19 18:12:00,
2013-01-19 12:22:00,58.4,37.7,30.18,South,188,3.0,12.0,46,0.00,,,0.00,Weather View 32 v70,2013-01-19 18:22:00,
2013-01-19 12:32:00,59.0,37.6,30.17,South,191,4.0,11.0,45,0.00,,,0.00,Weather View 32 v70,2013-01-19 18:32:00,
2013-01-19 12:41:00,59.2,37.2,30.16,SW,228,3.0,11.0,44,0.00,,,0.00,Weather View 32 v70,2013-01-19 18:41:00,
2013-01-19 12:47:00,59.5,37.5,30.16,SSW,199,4.0,11.0,44,0.00,,,0.00,Weather View 32 v70,2013-01-19 18:47:00,
2013-01-19 13:06:00,60.7,37.4,30.15,SW,217,0.0,11.0,42,0.00,,,0.00,Weather View 32 v70,2013-01-19 19:06:00,
2013-01-19 13:13:00,61.4,37.4,30.15,SSW,199,1.0,11.0,41,0.00,,,0.00,Weather View 32 v70,2013-01-19 19:13:00,
2013-01-19 13:21:00,61.6,37.6,30.14,WSW,246,5.0,11.0,41,0.00,,,0.00,Weather View 32 v70,2013-01-19 19:21:00,
2013-01-19 13:37:00,62.6,37.2,30.14,South,187,6.0,11.0,39,0.00,,,0.00,Weather View 32 v70,2013-01-19 19:37:00,
2013-01-19 13:46:00,62.9,37.5,30.14,SW,220,5.0,11.0,39,0.00,,,0.00,Weather View 32 v70,2013-01-19 19:46:00,
2013-01-19 13:56:00,63.3,37.2,30.13,SSW,201,8.0,11.0,38,0.00,,,0.00,Weather View 32 v70,2013-01-19 19:56:00,
2013-01-19 14:06:00,63.8,37.6,30.13,WSW,240,4.0,11.0,38,0.00,,,0.00,Weather View 32 v70,2013-01-19 20:06:00,
2013-01-19 14:11:00,64.1,37.2,30.13,WSW,241,3.0,10.0,37,0.00,,,0.00,Weather View 32 v70,2013-01-19 20:11:00,
2013-01-19 14:17:00,63.8,37.0,30.12,SSW,198,4.0,10.0,37,0.00,,,0.00,Weather View 32 v70,2013-01-19 20:17:00,
2013-01-19 14:31:00,64.5,37.6,30.12,SSW,204,6.0,10.0,37,0.00,,,0.00,Weather View 32 v70,2013-01-19 20:31:00,
2013-01-19 14:36:00,64.6,37.7,30.12,SW,224,0.0,10.0,37,0.00,,,0.00,Weather View 32 v70,2013-01-19 20:36:00,
2013-01-19 14:41:00,64.8,37.2,30.12,South,179,0.0,10.0,36,0.00,,,0.00,Weather View 32 v70,2013-01-19 20:41:00,
2013-01-19 14:46:00,64.9,37.9,30.12,SSW,198,3.0,10.0,37,0.00,,,0.00,Weather View 32 v70,2013-01-19 20:46:00,
2013-01-19 14:57:00,64.9,37.2,30.13,South,191,4.0,10.0,36,0.00,,,0.00,Weather View 32 v70,2013-01-19 20:57:00,
2013-01-19 15:07:00,65.1,37.4,30.13,SW,224,4.0,10.0,36,0.00,,,0.00,Weather View 32 v70,2013-01-19 21:07:00,
2013-01-19 15:14:00,65.2,37.5,30.13,SSW,208,5.0,10.0,36,0.00,,,0.00,Weather View 32 v70,2013-01-19 21:14:00,
2013-01-19 15:27:00,65.7,37.2,30.13,SSW,209,3.0,11.0,35,0.00,,,0.00,Weather View 32 v70,2013-01-19 21:27:00,
2013-01-19 15:32:00,65.8,37.3,30.13,SSW,204,1.0,11.0,35,0.00,,,0.00,Weather View 32 v70,2013-01-19 21:32:00,
2013-01-19 15:41:00,65.9,37.4,30.13,SW,224,1.0,11.0,35,0.00,,,0.00,Weather View 32 v70,2013-01-19 21:41:00,
2013-01-19 15:46:00,66.1,37.6,30.12,SSW,208,5.0,11.0,35,0.00,,,0.00,Weather View 32 v70,2013-01-19 21:46:00,
2013-01-19 15:52:00,66.2,36.9,30.12,South,177,2.0,12.0,34,0.00,,,0.00,Weather View 32 v70,2013-01-19 21:52:00,
2013-01-19 16:02:00,66.1,36.8,30.13,SSW,199,5.0,12.0,34,0.00,,,0.00,Weather View 32 v70,2013-01-19 22:02:00,
2013-01-19 16:11:00,66.4,37.1,30.13,SW,231,0.0,12.0,34,0.00,,,0.00,Weather View 32 v70,2013-01-19 22:11:00,
2013-01-19 16:22:00,66.3,37.0,30.13,SSW,193,0.0,12.0,34,0.00,,,0.00,Weather View 32 v70,2013-01-19 22:22:00,
2013-01-19 16:32:00,66.0,36.8,30.13,WSW,256,0.0,12.0,34,0.00,,,0.00,Weather View 32 v70,2013-01-19 22:32:00,
2013-01-19 16:42:00,66.2,36.9,30.13,SSW,209,0.0,12.0,34,0.00,,,0.00,Weather View 32 v70,2013-01-19 22:42:00,
2013-01-19 16:51:00,66.1,36.8,30.13,SSW,209,0.0,12.0,34,0.00,,,0.00,Weather View 32 v70,2013-01-19 22:51:00,
2013-01-19 16:57:00,65.9,36.7,30.13,SSW,195,4.0,12.0,34,0.00,,,0.00,Weather View 32 v70,2013-01-19 22:57:00,
2013-01-19 17:06:00,65.5,37.1,30.13,SSW,207,0.0,12.0,35,0.00,,,0.00,Weather View 32 v70,2013-01-19 23:06:00,
2013-01-19 17:15:00,65.3,36.9,30.14,SSW,207,0.0,12.0,35,0.00,,,0.00,Weather View 32 v70,2013-01-19 23:15:00,
2013-01-19 17:21:00,64.9,37.2,30.14,SSW,207,0.0,12.0,36,0.00,,,0.00,Weather View 32 v70,2013-01-19 23:21:00,
2013-01-19 17:32:00,64.2,36.6,30.14,SSW,207,0.0,9.0,36,0.00,,,0.00,Weather View 32 v70,2013-01-19 23:32:00,
2013-01-19 17:56:00,62.5,36.5,30.16,SSW,207,0.0,7.0,38,0.00,,,0.00,Weather View 32 v70,2013-01-19 23:56:00,
2013-01-19 18:12:00,61.3,36.7,30.16,SSW,207,0.0,0.0,40,0.00,,,0.00,Weather View 32 v70,2013-01-20 00:12:00,
2013-01-19 18:21:00,60.1,36.9,30.17,SSW,207,0.0,0.0,42,0.00,,,0.00,Weather View 32 v70,2013-01-20 00:21:00,
2013-01-19 18:37:00,58.7,36.8,30.18,SSW,207,0.0,0.0,44,0.00,,,0.00,Weather View 32 v70,2013-01-20 00:37:00,
2013-01-19 18:51:00,57.0,36.9,30.19,SSW,207,0.0,0.0,47,0.00,,,0.00,Weather View 32 v70,2013-01-20 00:51:00,
2013-01-19 19:07:00,55.4,37.0,30.19,SSW,207,0.0,0.0,50,0.00,,,0.00,Weather View 32 v70,2013-01-20 01:07:00,
2013-01-19 19:17:00,55.0,36.7,30.20,SSW,207,0.0,0.0,50,0.00,,,0.00,Weather View 32 v70,2013-01-20 01:17:00,
2013-01-19 19:26:00,54.5,37.2,30.20,SSW,207,0.0,0.0,52,0.00,,,0.00,Weather View 32 v70,2013-01-20 01:26:00,
2013-01-19 19:36:00,54.6,37.3,30.20,SSW,207,0.0,0.0,52,0.00,,,0.00,Weather View 32 v70,2013-01-20 01:36:00,
2013-01-19 19:42:00,54.0,36.7,30.20,SSW,207,0.0,0.0,52,0.00,,,0.00,Weather View 32 v70,2013-01-20 01:42:00,
2013-01-19 19:51:00,53.0,37.2,30.21,SSW,207,0.0,0.0,55,0.00,,,0.00,Weather View 32 v70,2013-01-20 01:51:00,
2013-01-19 20:01:00,52.4,37.1,30.21,SSW,207,0.0,0.0,56,0.00,,,0.00,Weather View 32 v70,2013-01-20 02:01:00,
2013-01-19 20:06:00,52.2,36.9,30.21,SSW,207,0.0,0.0,56,0.00,,,0.00,Weather View 32 v70,2013-01-20 02:06:00,
2013-01-19 20:11:00,51.9,36.7,30.21,SSW,207,0.0,0.0,56,0.00,,,0.00,Weather View 32 v70,2013-01-20 02:11:00,
2013-01-19 20:16:00,51.7,36.9,30.22,SSW,207,0.0,0.0,57,0.00,,,0.00,Weather View 32 v70,2013-01-20 02:16:00,
2013-01-19 20:31:00,50.8,37.0,30.22,SSW,207,0.0,0.0,59,0.00,,,0.00,Weather View 32 v70,2013-01-20 02:31:00,
2013-01-19 20:36:00,50.5,36.7,30.22,SSW,207,0.0,0.0,59,0.00,,,0.00,Weather View 32 v70,2013-01-20 02:36:00,
2013-01-19 20:42:00,50.3,36.9,30.22,SSW,207,0.0,0.0,60,0.00,,,0.00,Weather View 32 v70,2013-01-20 02:42:00,
2013-01-19 20:51:00,50.3,36.9,30.22,SSW,207,0.0,0.0,60,0.00,,,0.00,Weather View 32 v70,2013-01-20 02:51:00,
2013-01-19 20:57:00,50.3,36.9,30.23,SSW,207,0.0,0.0,60,0.00,,,0.00,Weather View 32 v70,2013-01-20 02:57:00,
2013-01-19 21:12:00,49.9,37.0,30.23,SSW,207,0.0,0.0,61,0.00,,,0.00,Weather View 32 v70,2013-01-20 03:12:00,
2013-01-19 21:17:00,49.5,36.6,30.23,SSW,207,0.0,0.0,61,0.00,,,0.00,Weather View 32 v70,2013-01-20 03:17:00,
2013-01-19 21:26:00,49.0,36.5,30.23,SSW,207,0.0,0.0,62,0.00,,,0.00,Weather View 32 v70,2013-01-20 03:26:00,
2013-01-19 21:31:00,48.9,36.8,30.23,SSW,207,0.0,0.0,63,0.00,,,0.00,Weather View 32 v70,2013-01-20 03:31:00,
2013-01-19 21:36:00,49.0,36.9,30.23,SSW,207,0.0,0.0,63,0.00,,,0.00,Weather View 32 v70,2013-01-20 03:36:00,
2013-01-19 21:46:00,48.9,36.8,30.23,SSW,207,0.0,0.0,63,0.00,,,0.00,Weather View 32 v70,2013-01-20 03:46:00,
2013-01-19 21:51:00,48.7,36.6,30.24,SSW,207,0.0,0.0,63,0.00,,,0.00,Weather View 32 v70,2013-01-20 03:51:00,
2013-01-19 22:01:00,48.5,36.5,30.24,SSW,207,0.0,0.0,63,0.00,,,0.00,Weather View 32 v70,2013-01-20 04:01:00,
2013-01-19 22:06:00,48.3,36.7,30.24,SSW,207,0.0,0.0,64,0.00,,,0.00,Weather View 32 v70,2013-01-20 04:06:00,
2013-01-19 22:12:00,47.9,36.3,30.24,SSW,207,0.0,0.0,64,0.00,,,0.00,Weather View 32 v70,2013-01-20 04:12:00,
2013-01-19 22:21:00,47.3,36.1,30.24,SSW,207,0.0,0.0,65,0.00,,,0.00,Weather View 32 v70,2013-01-20 04:21:00,
2013-01-19 22:31:00,46.8,36.0,30.24,SSW,207,0.0,0.0,66,0.00,,,0.00,Weather View 32 v70,2013-01-20 04:31:00,
2013-01-19 22:41:00,46.2,36.2,30.24,SSW,207,0.0,0.0,68,0.00,,,0.00,Weather View 32 v70,2013-01-20 04:41:00,
2013-01-19 22:47:00,46.1,36.1,30.25,SSW,207,0.0,0.0,68,0.00,,,0.00,Weather View 32 v70,2013-01-20 04:47:00,
2013-01-19 22:57:00,45.9,35.9,30.25,SSW,207,0.0,0.0,68,0.00,,,0.00,Weather View 32 v70,2013-01-20 04:57:00,
2013-01-19 23:06:00,45.4,35.8,30.25,SSW,207,0.0,0.0,69,0.00,,,0.00,Weather View 32 v70,2013-01-20 05:06:00,
2013-01-19 23:11:00,45.1,35.5,30.25,SSW,207,0.0,0.0,69,0.00,,,0.00,Weather View 32 v70,2013-01-20 05:11:00,
2013-01-19 23:16:00,44.8,35.6,30.25,SSW,207,0.0,0.0,70,0.00,,,0.00,Weather View 32 v70,2013-01-20 05:16:00,
2013-01-19 23:21:00,44.5,35.7,30.25,SSW,207,0.0,0.0,71,0.00,,,0.00,Weather View 32 v70,2013-01-20 05:21:00,
2013-01-19 23:26:00,44.4,35.6,30.25,SSW,207,0.0,0.0,71,0.00,,,0.00,Weather View 32 v70,2013-01-20 05:26:00,
2013-01-19 23:31:00,44.3,35.8,30.25,SSW,207,0.0,0.0,72,0.00,,,0.00,Weather View 32 v70,2013-01-20 05:31:00,
2013-01-19 23:36:00,44.3,35.8,30.25,SSW,207,0.0,0.0,72,0.00,,,0.00,Weather View 32 v70,2013-01-20 05:36:00,
2013-01-19 23:41:00,44.2,35.7,30.25,SSW,207,0.0,0.0,72,0.00,,,0.00,Weather View 32 v70,2013-01-20 05:41:00,
2013-01-19 23:51:00,43.8,35.4,30.25,SSW,207,0.0,0.0,72,0.00,,,0.00,Weather View 32 v70,2013-01-20 05:51:00,